TimePST,TemperatureF,Dew PointF,Humidity,Sea Level PressureIn,VisibilityMPH,Wind Direction,Wind SpeedMPH,Gust SpeedMPH,PrecipitationIn,Events,Conditions,WindDirDegrees,DateUTC
12:44 AM,28.4,23.0,80,30.39,10.0,NNW,8.1,-,N/A,,Overcast,330,2013-01-05 08:44:00
12:52 AM,28.0,23.0,81,30.44,10.0,NNW,9.2,-,N/A,,Overcast,330,2013-01-05 08:52:00
1:02 AM,28.4,23.0,80,30.39,10.0,NNW,9.2,-,N/A,,Overcast,330,2013-01-05 09:02:00
1:52 AM,28.9,23.0,78,30.43,10.0,North,9.2,-,N/A,,Overcast,350,2013-01-05 09:52:00
2:52 AM,28.9,24.1,82,30.42,10.0,North,8.1,-,N/A,,Overcast,350,2013-01-05 10:52:00
3:52 AM,28.9,23.0,78,30.41,10.0,North,9.2,-,N/A,,Overcast,350,2013-01-05 11:52:00
4:52 AM,28.9,23.0,78,30.40,10.0,NNW,8.1,-,N/A,,Overcast,340,2013-01-05 12:52:00
5:52 AM,30.0,24.1,79,30.40,10.0,North,9.2,-,N/A,,Overcast,350,2013-01-05 13:52:00
6:52 AM,28.9,23.0,78,30.39,10.0,NNW,8.1,-,N/A,,Overcast,340,2013-01-05 14:52:00
7:12 AM,28.4,23.0,80,30.34,10.0,NNW,6.9,-,N/A,,Overcast,340,2013-01-05 15:12:00
7:52 AM,30.0,24.1,79,30.38,10.0,North,8.1,-,N/A,,Overcast,360,2013-01-05 15:52:00
8:52 AM,30.9,25.0,79,30.38,10.0,NNE,8.1,-,N/A,,Overcast,20,2013-01-05 16:52:00
9:52 AM,32.0,25.0,75,30.38,10.0,North,6.9,-,N/A,,Overcast,10,2013-01-05 17:52:00
10:52 AM,32.0,25.0,75,30.38,10.0,NNE,5.8,-,N/A,,Overcast,20,2013-01-05 18:52:00
11:40 AM,30.2,24.8,80,30.31,10.0,ESE,5.8,-,N/A,,Mostly Cloudy,110,2013-01-05 19:40:00
11:52 AM,30.0,25.0,82,30.35,10.0,East,6.9,-,N/A,,Mostly Cloudy,100,2013-01-05 19:52:00
12:52 PM,28.9,24.1,82,30.34,8.0,SE,5.8,-,N/A,,Partly Cloudy,140,2013-01-05 20:52:00
12:59 PM,28.4,24.8,86,30.29,6.0,ESE,6.9,-,N/A,,Haze,110,2013-01-05 20:59:00
1:52 PM,27.0,21.9,81,30.32,9.0,SE,9.2,-,N/A,,Mostly Cloudy,130,2013-01-05 21:52:00
2:18 PM,26.6,21.2,80,30.28,8.0,SE,9.2,-,N/A,,Overcast,130,2013-01-05 22:18:00
2:41 PM,26.6,23.0,86,30.28,5.0,SE,8.1,-,N/A,,Overcast,130,2013-01-05 22:41:00
2:52 PM,27.0,24.1,89,30.33,9.0,SE,5.8,-,N/A,,Overcast,140,2013-01-05 22:52:00
3:06 PM,26.6,24.8,93,30.28,5.0,ESE,3.5,-,N/A,,Overcast,120,2013-01-05 23:06:00
3:26 PM,26.6,24.8,93,30.29,5.0,Calm,Calm,-,N/A,,Overcast,0,2013-01-05 23:26:00
3:52 PM,28.0,23.0,81,30.32,6.0,Calm,Calm,-,N/A,,Haze,0,2013-01-05 23:52:00
4:45 PM,28.4,24.8,86,30.27,1.0,Calm,Calm,-,0.00,Snow,Light Snow,0,2013-01-06 00:45:00
4:52 PM,28.0,24.1,85,30.32,1.0,Calm,Calm,-,0.00,Snow,Light Snow,0,2013-01-06 00:52:00
5:52 PM,28.0,25.0,88,30.31,2.0,Calm,Calm,-,0.00,Snow,Light Snow,0,2013-01-06 01:52:00
6:21 PM,28.4,24.8,86,30.26,2.0,Calm,Calm,-,0.01,Snow,Light Snow,0,2013-01-06 02:21:00
6:32 PM,28.4,24.8,86,30.26,2.0,Calm,Calm,-,0.01,Snow,Light Snow,0,2013-01-06 02:32:00
6:52 PM,28.0,25.0,88,30.31,2.0,Calm,Calm,-,0.01,Snow,Light Snow,0,2013-01-06 02:52:00
7:52 PM,28.0,25.0,88,30.29,2.0,Calm,Calm,-,0.00,Snow,Light Snow,0,2013-01-06 03:52:00
8:18 PM,28.4,26.6,93,30.25,2.0,Calm,Calm,-,0.01,Snow,Light Snow,0,2013-01-06 04:18:00
8:52 PM,28.0,26.1,92,30.28,2.0,Calm,Calm,-,0.01,Snow,Light Snow,0,2013-01-06 04:52:00
9:00 PM,28.4,26.6,93,30.24,2.0,Calm,Calm,-,0.00,,Overcast,0,2013-01-06 05:00:00
9:15 PM,28.4,26.6,93,30.24,3.0,SSE,3.5,-,0.00,,Overcast,160,2013-01-06 05:15:00
9:52 PM,28.9,25.0,85,30.27,4.0,SSE,5.8,-,0.00,,Overcast,160,2013-01-06 05:52:00
10:52 PM,28.9,26.1,89,30.26,4.0,South,6.9,-,N/A,,Overcast,170,2013-01-06 06:52:00
11:52 PM,28.0,25.0,88,30.24,5.0,South,8.1,-,N/A,,Overcast,170,2013-01-06 07:52:00